Flag for Russia Weather past 2 weeks in Chelyabinsk, Russia

Now
37 °F

Fog.


Feels Like: 33 °F
Forecast: 15 / 36 °F
Wind: 6 mph from Southeast

Location: Chelyabinsk-Balandino

Current Time: Oct 23, 2014 at 4:24:51 AM

Latest Report: Oct 23, 2014 at 3:30 AM


Visibility: 0 mi

Pressure: 29.42 "Hg

Humidity: 100%

Dew point: 37 °F

Location of ChelyabinskLocation

Historic Weather in Chelyabinsk — Graph

°F

Chelyabinsk temperature yesterday

Maximum temperature yesterday: 34 °F (at 6:00 PM)
Minimum temperature yesterday: 25 °F (at 12:00 AM)
Average temperature yesterday: 29 °F

Past Weeks' High & Low Weather Summary

 TemperatureHumidityPressure
High50 °F (Oct 13, 2:30 PM)100% (Oct 11, 7:30 PM)30.39 "Hg (Oct 11, 7:30 PM)
Low14 °F (Oct 21, 8:30 AM)40% (Oct 8, 3:00 PM)29.42 "Hg (Oct 23, 3:00 AM)
Average34 °F87%29.89 "Hg
* Reported Oct 8 3:00 AM — Oct 23 3:30 AM, Chelyabinsk, Weather by CustomWeather, © 2014

Note: Actual official high and low records may vary slightly from our data, if they occured in-between our weather recording intervals... More about our weather records

Advertising

Chelyabinsk weather history for previous 24 hours

 ConditionsComfort  
Time TempWeatherWind HumidityBarometerVisibility
3:30 AM
Oct 23
37 °FFog.6 mph100%29.42 "Hg0 mi
3:00 AM36 °FFog.8 mph100%29.42 "Hg1 mi
2:30 AM36 °FFog.8 mph100%29.45 "Hg0 mi
2:00 AM36 °FFog.6 mph100%29.45 "Hg0 mi
1:30 AM36 °FFog.6 mph100%29.45 "Hg0 mi
1:00 AM36 °FFog.6 mph100%29.47 "Hg0 mi
12:30 AM34 °FFog.3 mph100%29.47 "Hg0 mi
12:00 AM34 °FFog.3 mph100%29.47 "Hg0 mi
11:30 PM
Oct 22
34 °FFog.6 mph100%29.47 "Hg0 mi
11:00 PM34 °FFog.6 mph100%29.50 "Hg0 mi
10:30 PM34 °FLight rain. Fog.6 mph100%29.50 "Hg0 mi
10:00 PM34 °FLight rain. Fog.6 mph100%29.50 "Hg0 mi
9:30 PM34 °FFog.6 mph100%29.50 "Hg0 mi
9:00 PM34 °FFog.6 mph100%29.50 "Hg0 mi
8:30 PM34 °FFog.3 mph100%29.53 "Hg0 mi
8:00 PM34 °FFog.8 mph100%29.53 "Hg0 mi
7:30 PM34 °FFog.8 mph100%29.53 "Hg0 mi
7:00 PM34 °FFog.8 mph100%29.53 "Hg0 mi
6:30 PM34 °FFog.8 mph100%29.53 "Hg0 mi
6:00 PM34 °FFog.8 mph100%29.56 "Hg0 mi
5:30 PM32 °FFog.8 mph100%29.56 "Hg0 mi
5:00 PM32 °FFog.8 mph100%29.56 "Hg0 mi
4:30 PM32 °FHeavy rain. Fog.8 mph100%29.56 "Hg0 mi
4:00 PM32 °FHeavy rain. Fog.8 mph100%29.56 "Hg1 mi
3:30 PM32 °FIce fog.8 mph100%29.56 "Hg2 mi
3:00 PM32 °FLight snow. Ice fog.8 mph100%29.56 "Hg2 mi
2:30 PM32 °FSnow. Ice fog.6 mph100%29.56 "Hg1 mi
2:00 PM32 °FSnow. Ice fog.6 mph100%29.59 "Hg1 mi
1:30 PM30 °FSnow. Ice fog.6 mph100%29.59 "Hg1 mi
1:00 PM30 °FHeavy snow. Ice fog.6 mph100%29.59 "Hg1 mi
12:30 PM30 °FSnow. Ice fog.8 mph100%29.62 "Hg1 mi
12:00 PM28 °FSnow. Ice fog.8 mph100%29.62 "Hg1 mi
11:30 AM28 °FSnow. Ice fog.8 mph100%29.62 "Hg1 mi
11:00 AM28 °FSnow. Ice fog.6 mph100%29.62 "Hg1 mi
10:30 AM28 °FSnow. Ice fog.6 mph100%29.65 "Hg1 mi
10:00 AM27 °FSnow. Ice fog.6 mph100%29.65 "Hg1 mi
9:30 AM27 °FLight snow. Ice fog.6 mph100%29.65 "Hg1 mi
9:00 AM27 °FLight snow. Ice fog.6 mph100%29.65 "Hg2 mi
8:30 AM27 °FSnow. Ice fog.6 mph100%29.68 "Hg1 mi
8:00 AM27 °FSnow. Ice fog.6 mph100%29.68 "Hg1 mi
7:30 AM27 °FSnow. Ice fog.6 mph100%29.68 "Hg1 mi
7:00 AM27 °FSnow. Ice fog.6 mph100%29.68 "Hg1 mi
6:30 AM27 °FSnow. Ice fog.6 mph100%29.68 "Hg1 mi
6:00 AM27 °FLight snow. Ice fog.6 mph100%29.71 "Hg1 mi
5:30 AM27 °FSnow. Ice fog.3 mph100%29.71 "Hg1 mi
5:00 AM27 °FHeavy snow. Ice fog.6 mph93%29.71 "Hg1 mi
4:30 AM25 °FIce fog.6 mph100%29.74 "Hg1 mi
4:00 AM25 °FIce fog.3 mph100%29.74 "Hg1 mi
Weather by CustomWeather, © 2014

See weather overviewHow to use our weather pages